Home   Weather   Tsu   Past weeks

Flag for Japan Past Weather in Tsu, Japan — Yesterday and Last 2 Weeks

Now
80 °F

Warm.


Feels Like: 83 °F
Forecast: 76 / 90 °F
Wind: 5 mph from Northwest

Location: Tsu

Current Time: Aug 19, 2017 at 1:39:23 am

Latest Report: Aug 19, 2017 at 1:00 am


Visibility: N/A

Pressure: 29.84 "Hg

Humidity: 74%

Dew Point: 71 °F

Location of TsuLocation

Past Weather in Tsu — Graph

°F

Tsu Temperature Yesterday

Maximum temperature yesterday: 87 °F (at 11:00 am)
Minimum temperature yesterday: 79 °F (at 5:00 am)
Average temperature yesterday: 83 °F

High & Low Weather Summary for the Past Weeks

 TemperatureHumidityPressure
High94 °F (Aug 9, 3:00 pm)92% (Aug 16, 1:00 am)29.85 "Hg (Aug 16, 1:00 am)
Low74 °F (Aug 15, 5:00 am)41% (Aug 13, 4:00 pm)29.00 "Hg (Aug 7, 7:00 pm)
Average82 °F73%29.64 "Hg
* Reported Aug 4 12:00 am — Aug 19 12:00 am, Tsu. Weather by CustomWeather, © 2017

Note: Actual official high and low records may vary slightly from our data, if they occured in-between our weather recording intervals... More about our weather records

Advertising

Tsu Weather History for the Previous 24 Hours

Scroll right to see more
 ConditionsComfort  
Time TempWeatherWind HumidityBarometerVisibility
12:00 am
Sat, Aug 19
80 °FWarm.3 mph74%29.84 "HgN/A
11:00 pm
Fri, Aug 18
82 °FWarm.6 mph70%29.84 "HgN/A
10:00 pm82 °FWarm.5 mph78%29.84 "HgN/A
9:00 pm82 °FPassing clouds.5 mph79%29.83 "Hg9 mi
8:00 pm84 °FWarm.3 mph78%29.82 "HgN/A
7:00 pm84 °FWarm.5 mph79%29.80 "HgN/A
6:00 pm86 °FWarm.5 mph72%29.79 "HgN/A
5:00 pm86 °FWarm.7 mph70%29.78 "HgN/A
4:00 pm86 °FWarm.7 mph72%29.78 "HgN/A
3:00 pm86 °FOvercast.8 mph69%29.79 "Hg9 mi
2:00 pm82 °FWarm.7 mph77%29.80 "HgN/A
1:00 pm86 °FWarm.7 mph66%29.80 "HgN/A
12:00 pm87 °FWarm.6 mph62%29.80 "HgN/A
11:00 am87 °FWarm.6 mph63%29.82 "HgN/A
10:00 am85 °FWarm.5 mph66%29.84 "HgN/A
9:00 am82 °FOvercast.2 mph76%29.84 "Hg12 mi
8:00 am80 °FWarm.3 mph83%29.83 "HgN/A
7:00 am81 °FWarm.2 mph81%29.83 "HgN/A
6:00 am79 °FWarm.2 mph84%29.82 "HgN/A
5:00 am79 °FWarm.3 mph84%29.79 "HgN/A
4:00 am80 °FWarm.2 mph82%29.80 "HgN/A
3:00 am80 °FWarm.9 mph81%29.78 "HgN/A
2:00 am80 °FWarm.3 mph81%29.79 "HgN/A
1:00 am81 °FWarm.5 mph79%29.79 "HgN/A
Weather by CustomWeather, © 2017

See weather overviewHow to use our weather pages